Weather in Boguraev

Russia / Rostov Oblast     48°08′50″N   40°42′10″E
temp.,
°C
wind,
m/s
gust,
m/s
humid.,
%
clouds,
%
prec.,
mm/h
press.,
hPa
HPBL,
m
3 august, tue
tue300:00+26sw22414 0.0 101011
03:00+25wnw22411 0.0 101015
06:00+25nnw2249100 0.0 101128
09:00+31nne113314 0.0 1011387
12:00+36wsw23220 0.0 10112616
15:00+38ssw351827 0.0 10093803
18:00+34s342490 0.0 100988
21:00+26nne51056100 0.0 1011374
4 august, wed
wed400:00+22nnw5107887 1.0 1013378
03:00+22n368082 1.3 1013260
06:00+20nnw3683100 0.0 1014221
09:00+26nnw345974 0.0 1014723
12:00+30nnw454123 0.0 10141746
15:00+32nnw652921 0.0 10142862
18:00+30nnw653066 0.0 10141863
21:00+24n3839100 0.0 1015147
5 august, thu
thu500:00+22nne374494 0.0 1016127
03:00+20ne355548 0.0 101689
06:00+20ne365850 0.0 1017146
09:00+26ene45371 0.0 1017763
12:00+30ne4325100 0.0 10162164
15:00+31ne3322100 0.0 10152412
18:00+31ne3323100 0.0 10142090
21:00+25ene343297 0.0 101444
6 august, fri
fri600:00+23ene410363 0.0 1013152
03:00+21e49460 0.0 1013149
06:00+21e412460 0.0 1013277
09:00+29ese57325 0.0 1012572
12:00+34ese44245 0.0 10111808
15:00+35ese45225 0.0 10092805
18:00+35e45235 0.0 10081181
21:00+30e41131100 0.0 1008224
7 august, sat
sat700:00+30ese71628100 0.0 1008635
03:00+28se7152884 0.0 1007519
06:00+27ese61528100 0.0 1008516
09:00+31se8122426 0.0 10081066
12:00+35se7101799 0.0 10081919
15:00+36ese991697 0.0 10072391
18:00+34ese692192 0.0 1007437
21:00+30e61323100 0.0 1008312